Wind_Speed
28 28 27 26 25 24 23 22 20 18 17 16 15 14 13 12 11 11 11 10 9 8 7 7 6 6 6 7 9 11 12 14 15 16 17 18 19 19 20 21 22 23
28 28 27 26 26 25 24 22 20 19 19 18 17 16 15 14 13 12 12 11 10 10 9 9 8 8 8 9 11 12 13 14 15 17 18 19 19 19 19 21 23 24
28 28 27 26 26 25 24 23 21 21 20 19 18 18 17 16 15 14 13 13 12 11 11 10 10 9 10 11 13 14 15 15 16 17 18 19 20 20 20 22 23 24
29 28 27 26 26 26 25 24 23 22 21 21 20 19 19 18 17 16 15 14 13 13 12 12 11 11 12 13 14 15 16 17 18 18 19 20 20 21 21 23 24 25
29 28 27 27 27 27 26 25 23 23 23 22 22 21 20 19 18 17 17 16 15 14 14 13 13 13 14 15 16 17 18 19 19 20 20 21 21 21 22 23 25 26
31 30 29 29 28 28 27 26 25 24 24 24 23 22 21 21 20 19 18 18 17 16 15 15 15 15 16 17 18 18 19 19 20 21 22 22 21 21 22 23 25 27
32 31 30 29 28 28 27 27 26 26 25 25 25 23 22 22 22 20 19 18 18 17 17 16 16 17 18 19 20 20 20 20 21 21 22 22 22 22 22 24 25 27
32 31 30 29 28 28 28 28 27 27 27 26 25 24 23 23 23 22 20 19 19 19 18 18 18 18 19 21 21 22 22 22 22 22 23 23 22 22 23 24 26 27
32 31 30 29 29 29 29 29 29 29 29 28 27 26 25 24 23 23 21 21 21 20 20 20 20 20 21 21 22 23 23 23 24 24 23 23 23 23 24 26 27 28
34 33 31 30 30 30 31 31 31 31 30 29 28 27 26 25 24 23 23 23 23 22 22 22 22 23 23 23 23 24 24 24 24 24 24 24 23 23 25 27 28 29
36 35 33 31 31 31 32 33 33 33 31 30 30 28 27 26 25 25 24 24 24 24 24 24 25 25 25 25 25 25 25 25 24 25 24 24 25 25 26 28 29 30
39 37 35 33 33 33 34 34 33 32 31 31 30 29 28 27 27 26 26 26 26 26 26 26 27 27 27 27 27 26 25 25 25 25 25 25 26 27 28 29 30 31
40 39 37 36 35 35 35 35 34 33 32 31 30 30 29 29 28 28 28 27 27 28 28 28 29 29 29 29 28 27 26 26 26 25 25 25 27 28 29 30 31 31
40 40 39 38 37 37 37 36 35 34 33 32 32 31 31 30 30 30 29 29 29 30 30 30 31 31 30 30 29 28 27 27 26 26 27 27 28 29 30 30 31 32
39 40 41 41 40 40 40 38 36 35 34 34 33 32 32 31 31 31 31 30 31 32 32 32 32 31 31 30 29 29 28 28 27 27 28 28 29 30 30 31 32 33
39 41 43 43 43 43 41 39 38 36 36 35 34 34 33 33 33 32 32 32 33 33 34 33 32 31 30 30 29 29 29 29 29 29 29 29 30 31 31 32 33 34
41 42 44 45 46 45 43 41 40 39 38 37 36 35 35 34 34 33 33 33 34 34 34 33 32 31 30 30 29 29 30 30 30 30 30 30 30 31 32 33 35 37
44 44 44 46 47 47 45 43 42 41 40 39 38 37 35 35 35 34 34 34 34 34 33 32 31 31 31 30 30 30 31 31 32 32 31 31 31 32 33 34 36 39
45 45 46 47 47 48 47 46 45 44 42 41 39 37 37 37 36 35 34 34 34 33 32 31 31 31 31 31 31 31 32 33 33 32 32 32 32 33 35 36 38 40
43 45 46 47 47 48 48 48 48 46 44 42 40 39 38 38 36 35 35 34 34 33 32 32 32 32 32 32 32 33 33 34 33 32 32 33 34 35 37 39 40 39
40 42 44 45 47 47 48 49 49 47 45 42 41 40 40 38 37 36 36 35 33 33 34 34 33 32 33 33 33 34 34 33 33 33 33 34 35 37 39 40 40 37
37 38 40 42 44 46 47 48 48 46 44 42 41 41 40 39 39 37 36 34 34 35 35 35 33 33 33 34 35 35 34 33 33 34 34 36 37 39 41 41 38 32
34 35 36 38 41 43 45 46 46 45 43 41 40 39 39 39 39 37 36 35 36 37 36 35 34 34 34 35 35 35 34 34 35 35 36 37 39 41 41 39 34 29
31 31 33 35 37 40 42 43 44 43 42 41 40 39 38 39 38 37 37 37 37 37 36 35 34 34 35 35 35 35 35 35 36 37 37 39 41 42 40 35 30 26
29 29 30 32 35 37 39 40 42 42 42 41 41 40 39 39 39 39 39 39 38 37 36 35 35 35 35 35 35 36 37 37 38 38 39 41 42 40 37 32 28 25
29 29 29 31 33 35 36 37 39 40 41 42 42 41 41 40 41 41 40 40 38 37 35 35 35 35 36 36 36 37 38 38 39 40 41 42 41 38 34 29 26 24
Wind_Direction
205 205 206 207 207 208 210 213 217 219 222 226 228 231 233 235 234 233 233 235 238 245 252 262 277 299 321 332 337 339 341 343 345 347 348 350 353 356 356 356 356 356
207 207 207 208 210 211 213 216 219 222 226 229 232 235 237 240 241 239 240 241 244 249 254 260 272 289 306 318 324 328 330 335 338 341 342 343 345 347 349 351 352 353
208 209 209 211 212 214 215 218 221 225 229 233 235 238 241 244 245 245 245 245 247 252 258 263 271 285 299 308 314 318 322 326 331 335 337 337 338 339 342 345 348 349
209 210 211 212 214 216 217 218 221 226 231 235 238 240 243 246 248 249 250 249 250 254 259 265 272 283 293 301 307 311 316 320 324 328 331 332 333 334 337 340 343 345
210 210 211 213 215 218 220 220 222 226 231 236 239 241 244 247 250 251 252 253 254 256 260 266 273 281 288 295 301 306 311 316 319 322 324 327 328 330 333 336 339 341
210 209 210 212 215 218 221 223 224 227 231 236 239 242 245 247 250 251 252 254 256 259 262 267 274 282 288 292 296 301 306 310 314 317 319 322 324 326 328 332 335 337
214 213 211 211 214 218 221 224 226 228 232 236 239 242 244 247 250 251 252 253 256 261 264 268 274 281 286 291 295 299 303 306 309 312 316 318 321 323 325 328 332 334
221 220 216 213 214 217 220 224 227 230 233 236 239 242 244 247 249 251 252 253 256 260 264 268 272 277 283 288 294 298 302 305 308 310 313 316 318 320 323 326 329 330
226 226 222 216 215 216 219 223 227 229 232 235 238 240 243 245 248 250 252 254 257 261 265 269 272 277 281 287 292 298 302 305 308 310 313 315 317 319 322 324 325 326
227 228 226 221 218 218 220 222 226 229 231 234 237 239 241 243 245 248 251 255 260 264 268 272 277 280 284 288 292 297 301 304 307 310 313 315 316 318 320 321 321 323
227 228 228 225 222 221 222 223 226 229 231 234 236 239 240 241 243 246 251 256 261 266 270 275 279 283 287 290 293 296 299 303 306 309 312 314 315 317 317 317 318 321
227 228 229 227 225 224 224 226 228 230 232 234 237 239 240 241 243 247 251 256 261 266 272 276 281 285 288 290 293 295 298 302 305 309 312 313 314 313 314 314 317 319
228 229 230 229 228 227 227 228 229 230 232 234 236 237 239 241 244 248 253 257 262 267 272 277 281 285 289 291 293 296 298 302 306 309 310 310 309 310 311 313 316 318
229 230 231 230 229 229 229 229 230 230 232 233 235 236 239 242 246 250 254 258 263 267 272 276 281 285 289 292 295 297 301 305 307 308 307 306 306 307 309 312 315 318
229 231 232 232 231 231 231 232 232 232 233 234 236 238 240 244 247 251 256 260 265 269 273 277 282 286 289 292 295 299 303 306 306 305 304 304 305 306 309 311 314 317
226 230 232 232 233 233 234 234 234 235 236 237 239 241 243 246 249 253 258 262 267 271 276 280 284 287 290 293 297 301 303 304 303 302 302 303 304 306 309 311 314 317
225 228 231 232 233 234 235 235 236 237 238 239 241 243 245 248 252 256 260 264 270 275 279 282 285 287 290 294 298 300 301 300 299 300 301 302 304 306 308 312 315 317
226 226 229 231 233 234 235 236 237 238 239 240 242 244 247 250 254 258 262 267 272 277 279 281 283 286 289 293 296 297 297 296 297 299 300 302 304 306 309 312 314 316
231 228 228 230 232 234 235 236 237 238 239 241 243 245 248 251 255 259 264 269 273 276 278 279 282 285 288 291 292 293 293 294 296 298 300 301 304 306 309 311 314 316
236 234 232 231 231 232 234 236 237 238 239 241 244 246 249 253 257 261 265 269 272 275 277 279 281 283 287 288 289 290 291 293 296 297 299 301 304 307 309 311 313 314
238 238 237 236 234 233 234 236 237 239 240 242 245 248 251 255 258 261 264 267 271 274 275 277 280 282 285 286 287 289 291 293 294 296 298 301 304 307 309 311 312 311
239 239 240 239 238 236 235 236 237 239 240 242 245 248 251 254 256 259 261 265 268 270 272 275 279 281 283 284 286 288 290 291 293 295 298 301 304 306 308 309 309 307
239 240 241 241 240 239 238 238 238 239 241 242 244 246 249 252 255 256 259 261 263 267 271 275 278 279 280 282 285 287 288 289 291 294 298 301 304 305 306 306 304 302
239 240 241 242 242 242 241 240 240 240 241 242 243 245 248 250 253 255 257 259 262 266 271 274 275 276 279 282 283 284 286 288 291 295 298 301 302 302 303 302 299 298
238 240 241 242 243 243 243 242 241 240 240 241 243 244 246 249 252 254 257 260 263 267 269 271 273 276 278 280 281 282 285 288 291 295 298 299 300 300 299 296 294 296
237 239 239 240 241 242 242 242 241 241 241 241 243 244 246 249 252 256 259 262 264 266 267 270 272 275 277 277 279 282 285 289 292 295 297 297 297 296 294 292 294 299
Height
10989 10990 10992 10994 10995 10997 10998 11000 11002 11004 11004 11005 11006 11006 11007 11008 11008 11008 11008 11009 11009 11009 11009 11009 11009 11009 11009 11009 11009 11008 11008 11008 11007 11007 11006 11005 11005 11004 11002 11001 11000 10998
10987 10989 10991 10993 10994 10996 10997 10999 11001 11003 11004 11004 11005 11006 11006 11007 11007 11008 11008 11008 11008 11008 11008 11008 11008 11008 11008 11008 11008 11008 11008 11007 11007 11006 11005 11004 11004 11003 11002 11001 10999 10998
10986 10988 10989 10991 10993 10995 10996 10998 11000 11001 11002 11003 11004 11005 11006 11006 11007 11007 11008 11008 11008 11008 11008 11008 11008 11008 11008 11008 11007 11007 11007 11006 11006 11006 11005 11003 11002 11001 11001 11000 10999 10998
10984 10986 10988 10990 10992 10993 10995 10996 10998 10999 11001 11002 11003 11004 11005 11005 11006 11007 11007 11007 11007 11007 11007 11007 11007 11007 11007 11007 11007 11006 11006 11006 11005 11004 11004 11003 11001 11000 10999 10998 10997 10996
10981 10984 10986 10988 10990 10991 10993 10995 10996 10997 10999 11000 11001 11002 11004 11004 11005 11005 11006 11006 11007 11007 11007 11007 11007 11006 11006 11006 11006 11006 11005 11005 11004 11003 11003 11002 11001 11000 10998 10997 10996 10995
10978 10981 10983 10985 10987 10989 10991 10993 10994 10995 10996 10998 10999 11001 11002 11003 11004 11004 11005 11005 11005 11006 11006 11006 11006 11005 11005 11005 11005 11005 11005 11004 11003 11002 11001 11001 11000 10999 10997 10996 10995 10994
10976 10978 10980 10983 10985 10987 10989 10990 10992 10993 10994 10995 10997 10999 11000 11001 11002 11003 11003 11004 11004 11005 11005 11005 11005 11005 11004 11004 11003 11004 11003 11003 11002 11001 11000 10999 10998 10997 10996 10995 10994 10992
10975 10977 10979 10981 10983 10985 10987 10988 10989 10991 10992 10993 10995 10997 10998 10999 11000 11001 11002 11002 11003 11003 11003 11003 11004 11004 11003 11003 11002 11002 11002 11001 11000 11000 10999 10998 10997 10996 10995 10993 10992 10991
10974 10975 10977 10979 10981 10982 10984 10985 10987 10988 10989 10991 10992 10994 10995 10996 10998 10998 10999 11000 11001 11001 11001 11002 11002 11002 11002 11002 11001 11001 11000 10999 10999 10998 10997 10996 10995 10994 10993 10992 10991 10989
10971 10973 10975 10977 10978 10979 10981 10982 10983 10985 10986 10988 10989 10991 10993 10994 10995 10996 10997 10998 10998 10999 10999 10999 11000 11000 11000 11000 11000 10999 10999 10998 10997 10996 10995 10994 10993 10992 10991 10990 10988 10987
10968 10970 10972 10974 10976 10977 10978 10979 10980 10982 10984 10985 10987 10989 10990 10991 10993 10994 10995 10995 10996 10996 10997 10997 10998 10998 10998 10998 10998 10998 10997 10996 10996 10994 10993 10992 10990 10990 10989 10988 10986 10985
10965 10967 10969 10972 10973 10974 10975 10976 10978 10980 10982 10983 10985 10987 10988 10989 10990 10991 10992 10993 10994 10994 10995 10995 10995 10995 10996 10996 10996 10996 10995 10995 10994 10993 10992 10990 10988 10987 10986 10985 10984 10983
10962 10964 10967 10969 10970 10971 10972 10973 10975 10977 10979 10981 10983 10984 10985 10987 10988 10989 10990 10991 10992 10993 10993 10993 10993 10993 10993 10993 10993 10993 10993 10992 10991 10990 10989 10988 10987 10985 10984 10983 10982 10981
10960 10962 10965 10966 10967 10968 10969 10970 10972 10974 10976 10978 10979 10981 10982 10984 10985 10986 10987 10989 10990 10991 10991 10991 10991 10991 10991 10990 10990 10990 10990 10990 10989 10987 10986 10985 10984 10983 10982 10981 10979 10978
10958 10960 10962 10963 10964 10965 10965 10967 10969 10971 10973 10975 10976 10978 10980 10981 10982 10983 10985 10986 10987 10988 10989 10989 10989 10989 10988 10988 10987 10987 10986 10986 10985 10984 10983 10982 10981 10980 10979 10978 10977 10976
10955 10957 10958 10960 10961 10961 10963 10965 10967 10969 10970 10972 10974 10975 10977 10978 10979 10981 10982 10983 10984 10984 10985 10986 10986 10986 10985 10985 10985 10984 10983 10983 10982 10981 10980 10979 10978 10977 10976 10975 10974 10973
10951 10953 10954 10956 10957 10959 10961 10963 10964 10966 10967 10969 10971 10972 10974 10975 10977 10978 10979 10980 10981 10981 10982 10982 10982 10982 10982 10982 10982 10981 10980 10979 10978 10978 10977 10976 10975 10974 10973 10972 10970 10969
10947 10948 10950 10952 10954 10956 10958 10960 10961 10963 10964 10966 10968 10970 10971 10972 10973 10975 10976 10977 10978 10978 10979 10979 10979 10979 10979 10979 10979 10978 10977 10976 10975 10974 10974 10973 10972 10971 10970 10969 10967 10966
10943 10945 10946 10948 10950 10952 10955 10957 10957 10958 10960 10962 10965 10967 10968 10969 10970 10972 10973 10974 10975 10975 10975 10976 10976 10976 10976 10976 10976 10975 10974 10972 10972 10971 10970 10969 10968 10967 10966 10965 10964 10962
10939 10941 10943 10945 10947 10950 10952 10952 10953 10954 10957 10959 10962 10963 10964 10966 10968 10969 10970 10970 10971 10971 10972 10972 10973 10973 10973 10972 10972 10971 10970 10969 10968 10967 10966 10965 10964 10964 10962 10961 10960 10958
10936 10937 10940 10942 10944 10946 10947 10948 10950 10952 10954 10957 10958 10960 10961 10963 10964 10965 10966 10967 10968 10968 10968 10968 10969 10970 10969 10968 10968 10967 10966 10965 10964 10964 10963 10962 10961 10960 10958 10957 10956 10954
10932 10934 10936 10939 10940 10942 10943 10944 10946 10949 10951 10953 10955 10956 10958 10959 10960 10961 10963 10964 10964 10964 10964 10965 10966 10966 10965 10964 10963 10962 10962 10961 10960 10960 10959 10958 10957 10956 10954 10953 10952 10950
10928 10930 10932 10934 10936 10938 10939 10941 10943 10945 10948 10949 10951 10952 10953 10954 10956 10958 10959 10960 10960 10960 10961 10962 10962 10962 10961 10960 10959 10958 10957 10957 10956 10956 10956 10955 10953 10951 10950 10949 10948 10946
10925 10926 10928 10930 10932 10933 10935 10937 10939 10941 10944 10945 10946 10948 10949 10950 10951 10953 10954 10955 10956 10957 10958 10959 10958 10958 10957 10956 10955 10954 10953 10953 10952 10952 10952 10951 10949 10947 10946 10946 10944 10943
10921 10923 10924 10926 10927 10929 10930 10933 10935 10937 10939 10940 10941 10943 10944 10946 10947 10948 10949 10951 10952 10953 10954 10954 10954 10953 10953 10952 10950 10949 10949 10949 10948 10948 10948 10946 10944 10943 10942 10942 10940 10939
10917 10919 10920 10922 10923 10924 10926 10928 10930 10932 10934 10935 10936 10938 10940 10942 10943 10943 10945 10946 10948 10949 10950 10950 10950 10949 10948 10947 10946 10945 10945 10945 10944 10944 10943 10941 10939 10939 10938 10937 10936 10934